Weather History for KN60 - November, 2012

Change the Weather History Date:

Thursday, November 1, 2012

  Actual Average Record
Temperature  
Mean Temperature 29 °F -  
Max Temperature 34 °F 42 °F 56 °F (2010)
Min Temperature 24 °F 23 °F 8 °F (2003)
Degree Days  
Heating Degree Days 36    
Month to date heating degree days 36  
Moisture  
Dew Point 25 °F    
Average Humidity 85    
Maximum Humidity 100    
Minimum Humidity 69    
Precipitation  
Precipitation 0.00 in - - ()
Month to date precipitation 0.00  
Year to date precipitation 15.41  
Sea Level Pressure  
Sea Level Pressure 30.14 in    
Wind  
Wind Speed 10 mph (East)    
Max Wind Speed 18 mph    
Max Gust Speed 23 mph    
Averages and records for this station are not official NWS values.
T = Trace of Precipitation, MM = Missing Value Source: NWS Daily Summary

Daily Weather History Graph

Daily Weather History Graph

Search for Another Location

Airport or City:

Trip Planner

Search our weather history database for the weather conditions in past years. The results will help you decide how hot, cold, wet, or windy it might be!

Date:

Astronomy

Nov. 01, 2012 Rise Set
Actual Time 8:30 AM CDT 6:27 PM CDT
Civil Twilight 7:58 AM CDT 6:59 PM CDT
Nautical Twilight 7:21 AM CDT 7:35 PM CDT
Astronomical Twilight 6:46 AM CDT 8:11 PM CDT
Moon 8:16 PM CDT (11/1) 11:14 AM CDT (11/1)
Length of Visible Light 11h 01m
Length of Day
9h 56m
Waning Gibbous, 93% of the Moon is Illuminated
Nov 1
Waning Gibbous
Nov 6
Last Quarter
Nov 13
New
Nov 20
First Quarter
Nov 28
Full

Hourly Weather History & Observations

Time (CDT) Temp. Windchill Dew Point Humidity Pressure Visibility Wind Dir Wind Speed Gust Speed Precip Events Conditions
12:52 AM 30.0 °F 25.2 °F 26.1 °F 85% 30.20 in - NNE 4.6 mph - N/A   Unknown
1:52 AM 28.9 °F 23.9 °F 25.0 °F 85% 30.20 in - NNE 4.6 mph - N/A   Unknown
2:52 AM 27.0 °F 21.6 °F 24.1 °F 89% 30.20 in - North 4.6 mph - N/A   Unknown
3:52 AM 26.1 °F 19.4 °F 23.0 °F 88% 30.18 in - NNE 5.8 mph - N/A   Unknown
4:52 AM 25.0 °F - 21.9 °F 88% 30.19 in - Calm Calm - N/A   Unknown
5:52 AM 24.1 °F 16.0 °F 21.0 °F 88% 30.19 in - NE 6.9 mph - N/A   Unknown
6:52 AM 27.0 °F 20.5 °F 25.0 °F 92% 30.19 in - ENE 5.8 mph - N/A   Unknown
7:52 AM 27.0 °F 20.5 °F 26.1 °F 96% 30.18 in - East 5.8 mph - N/A   Unknown
8:52 AM 28.0 °F 18.6 °F 26.1 °F 92% 30.18 in - East 10.4 mph - N/A   Unknown
9:52 AM 28.9 °F 19.8 °F 27.0 °F 92% 30.19 in - East 10.4 mph - N/A   Unknown
10:52 AM 30.0 °F 20.5 °F 28.0 °F 92% 30.17 in - ESE 11.5 mph - N/A   Unknown
11:52 AM 30.0 °F 19.5 °F 28.0 °F 92% 30.16 in - ESE 13.8 mph 19.6 mph N/A   Unknown
12:52 PM 30.0 °F 19.5 °F 27.0 °F 88% 30.16 in - East 13.8 mph - N/A   Unknown
1:52 PM 30.9 °F 21.2 °F 27.0 °F 85% 30.14 in - ESE 12.7 mph - N/A   Unknown
2:52 PM 32.0 °F 22.1 °F 26.1 °F 79% 30.11 in - ESE 13.8 mph - N/A   Unknown
3:52 PM 33.1 °F 23.4 °F 26.1 °F 75% 30.08 in - ESE 13.8 mph - N/A   Unknown
4:52 PM 34.0 °F 23.4 °F 24.1 °F 67% 30.08 in - ESE 17.3 mph - N/A   Unknown
5:52 PM 32.0 °F 21.2 °F 24.1 °F 73% 30.09 in - East 16.1 mph - N/A   Unknown
6:52 PM 30.0 °F 17.9 °F 24.1 °F 79% 30.08 in - East 18.4 mph - N/A   Unknown
7:52 PM 28.9 °F 18.2 °F 23.0 °F 78% 30.10 in - East 13.8 mph - N/A   Unknown
8:52 PM 28.0 °F 16.5 °F 23.0 °F 81% 30.11 in - East 15.0 mph - N/A   Unknown
9:52 PM 27.0 °F 15.2 °F 23.0 °F 85% 30.09 in - East 15.0 mph - N/A   Unknown
10:52 PM 27.0 °F 14.7 °F 23.0 °F 85% 30.08 in - East 16.1 mph - N/A   Unknown
11:52 PM 27.0 °F 16.7 °F 23.0 °F 85% 30.11 in - East 11.5 mph - N/A   Unknown